Weather History for Winslow, AZ

Change the Weather History Date:

Monday, January 14, 2013

  Actual Average Record
Temperature  
Mean Temperature 18 °F 35 °F  
Max Temperature 27 °F 49 °F 70 °F (1928)
Min Temperature 8 °F 21 °F -6 °F (1933)
Degree Days  
Heating Degree Days 47 30  
Month to date heating degree days 559 431  
Since 1 July heating degree days 2206 2309  
Cooling Degree Days 0 0  
Month to date cooling degree days 0 0  
Year to date cooling degree days 0 0  
Moisture  
Dew Point 4 °F    
Average Humidity 56    
Maximum Humidity 80    
Minimum Humidity 32    
Precipitation  
Precipitation T in 0.01 in 0.14 in (1997)
Month to date precipitation 0.02 0.24  
Year to date precipitation 0.02 0.24  
Sea Level Pressure  
Sea Level Pressure 30.17 in    
Wind  
Wind Speed 8 mph (WNW)    
Max Wind Speed 16 mph    
Max Gust Speed 20 mph    
Visibility 9 miles    
Events Snow    
T = Trace of Precipitation, MM = Missing Value Source: NWS Daily Summary

Daily Weather History Graph

Daily Weather History Graph

Search for Another Location

Airport:

Trip Planner

Search our weather history database for the weather conditions in past years. The results will help you decide how hot, cold, wet, or windy it might be!

Date:

Astronomy

Jan. 14, 2013 Rise Set
Actual Time 7:30 AM MST 5:33 PM MST
Civil Twilight 7:03 AM MST 6:01 PM MST
Nautical Twilight 6:31 AM MST 6:32 PM MST
Astronomical Twilight 6:01 AM MST 7:03 PM MST
Moon 9:15 AM MST (1/14) 9:12 PM MST (1/14)
Length of Visible Light 10h 58m
Length of Day
10h 03m
Waxing Crescent, 12% of the Moon is Illuminated
Jan 14
Waxing Crescent
Jan 18
First Quarter
Jan 26
Full
Feb 3
Last Quarter
Feb 10
New

Hourly Weather History & Observations

Time (MST) Temp. Windchill Dew Point Humidity Pressure Visibility Wind Dir Wind Speed Gust Speed Precip Events Conditions
12:56 AM 15.1 °F 6.4 °F -0.0 °F 51% 30.05 in 10.0 mi West 5.8 mph - N/A   Scattered Clouds
1:56 AM 15.1 °F 6.4 °F -0.0 °F 51% 30.06 in 10.0 mi WSW 5.8 mph - N/A   Mostly Cloudy
2:56 AM 15.1 °F 6.4 °F 1.9 °F 56% 30.07 in 10.0 mi West 5.8 mph - N/A   Overcast
3:56 AM 16.0 °F 10.4 °F 3.0 °F 57% 30.06 in 10.0 mi NW 3.5 mph - N/A   Mostly Cloudy
4:56 AM 14.0 °F 2.0 °F 3.0 °F 62% 30.07 in 10.0 mi WNW 9.2 mph - N/A   Partly Cloudy
5:56 AM 10.9 °F 4.7 °F 1.9 °F 67% 30.11 in 10.0 mi West 3.5 mph - N/A   Clear
6:56 AM 12.0 °F 1.5 °F 6.1 °F 77% 30.15 in 10.0 mi West 6.9 mph - N/A   Clear
7:56 AM 14.0 °F 2.0 °F 8.1 °F 77% 30.18 in 7.0 mi WNW 9.2 mph - N/A   Mostly Cloudy
8:25 AM 15.8 °F 1.4 °F 10.4 °F 79% 30.04 in 2.5 mi WNW 13.8 mph - 0.00 in Snow Light Snow
8:30 AM 15.8 °F 2.1 °F 10.4 °F 79% 30.05 in 3.0 mi WNW 12.7 mph - 0.00 in Snow Light Snow
8:53 AM 15.8 °F 0.9 °F 10.4 °F 79% 30.05 in 8.0 mi WNW 15.0 mph - 0.00 in Snow Light Snow
8:56 AM 16.0 °F 2.3 °F 10.0 °F 77% 30.21 in 9.0 mi WNW 12.7 mph - 0.00 in   Overcast
9:56 AM 19.0 °F 6.8 °F 12.0 °F 74% 30.20 in 8.0 mi NW 11.5 mph - N/A   Overcast
10:08 AM 19.4 °F 6.6 °F 12.2 °F 74% 30.07 in 2.5 mi NW 12.7 mph - 0.00 in Snow Light Snow
10:36 AM 19.4 °F 7.9 °F 12.2 °F 74% 30.07 in 7.0 mi WNW 10.4 mph - 0.00 in Snow Light Snow
10:56 AM 19.9 °F 8.6 °F 12.0 °F 71% 30.22 in 9.0 mi WNW 10.4 mph - 0.00 in   Overcast
11:23 AM 19.4 °F 6.6 °F 10.4 °F 68% 30.07 in 8.0 mi WNW 12.7 mph 18.4 mph 0.00 in Snow Light Snow
11:56 AM 21.0 °F 9.9 °F 10.9 °F 65% 30.19 in 10.0 mi WNW 10.4 mph - 0.00 in   Overcast
12:56 PM 21.9 °F 15.7 °F 10.0 °F 60% 30.17 in 10.0 mi Variable 4.6 mph - 0.00 in   Overcast
1:56 PM 24.1 °F 17.0 °F 10.0 °F 55% 30.17 in 10.0 mi NNE 5.8 mph - N/A   Mostly Cloudy
2:18 PM 24.8 °F 17.9 °F 10.4 °F 54% 30.04 in 10.0 mi Variable 5.8 mph - N/A   Scattered Clouds
2:56 PM 27.0 °F 20.5 °F 8.1 °F 45% 30.17 in 10.0 mi North 5.8 mph - N/A   Partly Cloudy
3:56 PM 26.1 °F 17.6 °F 6.1 °F 43% 30.19 in 10.0 mi NNW 8.1 mph - N/A   Overcast
4:56 PM 26.1 °F 16.8 °F -0.0 °F 32% 30.22 in 10.0 mi NNW 9.2 mph - N/A   Mostly Cloudy
5:56 PM 21.9 °F 11.7 °F -2.9 °F 34% 30.26 in 10.0 mi NW 9.2 mph - N/A   Clear
6:56 PM 18.0 °F 6.9 °F -6.0 °F 35% 30.30 in 10.0 mi WNW 9.2 mph - N/A   Clear
7:56 PM 12.9 °F 2.6 °F -6.0 °F 43% 30.32 in 10.0 mi WNW 6.9 mph - N/A   Clear
8:56 PM 12.0 °F 0.5 °F -7.1 °F 42% 30.34 in 10.0 mi WNW 8.1 mph - N/A   Clear
9:56 PM 12.9 °F -0.2 °F -7.1 °F 41% 30.33 in 10.0 mi WNW 10.4 mph - N/A   Clear
10:56 PM 10.0 °F -0.9 °F -8.0 °F 44% 30.34 in 10.0 mi WNW 6.9 mph - N/A   Clear
11:56 PM 8.6 °F -2.6 °F -7.6 °F 48% 30.18 in 10.0 mi WNW 6.9 mph - N/A   Clear